• In Russia
  • List of Countries
  • For 7 days
  • Water Temperature
  • Satellite Maps
  • Weather Map
  • Weather Widgets
  • user-avatar
    Login

    Hourly Weather Salta

    Today, 19 June, Tuesday

    Time Temperature Precipitation Wind Pressure Humidity
    00:00 +12°C° 0 mm 2 mps 653 mmHg 45%
    01:00 +10°C° 0 mm 2 mps 652 mmHg 45%
    02:00 +10°C° 0 mm 2 mps 652 mmHg 46%
    03:00 +10°C° 0 mm 2 mps 652 mmHg 45%
    04:00 +10°C° 0 mm 2 mps 651 mmHg 44%
    05:00 +10°C° 0 mm 2 mps 651 mmHg 43%
    06:00 +12°C° 0 mm 2 mps 651 mmHg 42%
    07:00 +12°C° 0 mm 2 mps 652 mmHg 41%
    08:00 +13°C° 0 mm 2 mps 652 mmHg 39%
    09:00 +16°C° 0 mm 2 mps 653 mmHg 34%
    10:00 +19°C° 0 mm 2 mps 653 mmHg 29%
    11:00 +23°C° 0 mm 2 mps 654 mmHg 24%
    12:00 +24°C° 0 mm 2 mps 654 mmHg 23%
    13:00 +25°C° 0 mm 2 mps 653 mmHg 23%
    14:00 +26°C° 0 mm 2 mps 653 mmHg 22%
    15:00 +25°C° 0 mm 2 mps 652 mmHg 28%
    16:00 +23°C° 0 mm 2 mps 652 mmHg 33%
    17:00 +22°C° 0 mm 1 mps 651 mmHg 38%
    18:00 +20°C° 0 mm 1 mps 651 mmHg 43%
    19:00 +18°C° 0 mm 1 mps 651 mmHg 47%
    20:00 +15°C° 0 mm 1 mps 651 mmHg 52%
    21:00 +14°C° 0 mm 1 mps 651 mmHg 52%
    22:00 +14°C° 0 mm 1 mps 651 mmHg 52%
    23:00 +14°C° 0 mm 1 mps 651 mmHg 52%

    Tomorrow, 20 June, Wednesday

    Time Temperature Precipitation Wind Pressure Humidity
    00:00 +14°C° 0 mm 1 mps 651 mmHg 51%
    01:00 +14°C° 0 mm 1 mps 651 mmHg 50%
    02:00 +14°C° 0 mm 1 mps 652 mmHg 50%
    03:00 +14°C° 0 mm 1 mps 651 mmHg 49%
    04:00 +14°C° 0 mm 1 mps 651 mmHg 48%
    05:00 +14°C° 0 mm 1 mps 651 mmHg 48%
    06:00 +14°C° 0 mm 1 mps 651 mmHg 47%
    07:00 +15°C° 0 mm 1 mps 652 mmHg 46%
    08:00 +15°C° 0 mm 1 mps 653 mmHg 45%
    09:00 +19°C° 0 mm 1 mps 653 mmHg 40%
    10:00 +22°C° 0 mm 1 mps 654 mmHg 35%
    11:00 +25°C° 0 mm 1 mps 655 mmHg 30%
    12:00 +26°C° 0 mm 2 mps 654 mmHg 29%
    13:00 +26°C° 0 mm 2 mps 653 mmHg 29%
    14:00 +27°C° 0 mm 2 mps 653 mmHg 29%
    15:00 +26°C° 0 mm 2 mps 652 mmHg 34%
    16:00 +25°C° 0 mm 2 mps 651 mmHg 39%
    17:00 +23°C° 0 mm 2 mps 651 mmHg 44%
    18:00 +21°C° 0 mm 1 mps 651 mmHg 51%
    19:00 +19°C° 0 mm 1 mps 650 mmHg 57%
    20:00 +16°C° 0 mm 1 mps 650 mmHg 64%
    21:00 +16°C° 0 mm 1 mps 650 mmHg 63%
    22:00 +16°C° 0 mm 1 mps 651 mmHg 63%
    23:00 +15°C° 0 mm 1 mps 651 mmHg 62%

    Day after tomorrow, 21 June, Thursday

    Time Temperature Precipitation Wind Pressure Humidity
    00:00 +16°C° 0 mm 2 mps 651 mmHg 59%
    01:00 +16°C° 0 mm 2 mps 651 mmHg 57%
    02:00 +16°C° 0 mm 2 mps 650 mmHg 54%
    03:00 +16°C° 0 mm 2 mps 651 mmHg 53%
    04:00 +16°C° 0 mm 2 mps 651 mmHg 51%
    05:00 +16°C° 0 mm 2 mps 651 mmHg 49%
    06:00 +16°C° 0 mm 1 mps 651 mmHg 47%
    07:00 +18°C° 0 mm 1 mps 652 mmHg 46%
    08:00 +18°C° 0 mm 1 mps 653 mmHg 44%
    09:00 +20°C° 0 mm 2 mps 654 mmHg 39%
    10:00 +23°C° 0 mm 2 mps 655 mmHg 35%
    11:00 +26°C° 0 mm 2 mps 656 mmHg 31%
    12:00 +26°C° 0 mm 3 mps 656 mmHg 32%
    13:00 +26°C° 0 mm 3 mps 655 mmHg 33%
    14:00 +26°C° 0 mm 3 mps 655 mmHg 35%
    15:00 +25°C° 0 mm 3 mps 654 mmHg 41%
    16:00 +24°C° 0 mm 3 mps 654 mmHg 47%
    17:00 +23°C° 0 mm 2 mps 653 mmHg 53%
    18:00 +20°C° 0 mm 2 mps 653 mmHg 62%
    19:00 +18°C° 0 mm 2 mps 653 mmHg 72%
    20:00 +16°C° 0 mm 1 mps 653 mmHg 81%
    21:00 +15°C° 0 mm 1 mps 653 mmHg 81%
    22:00 +15°C° 0 mm 1 mps 653 mmHg 82%
    23:00 +15°C° 0 mm 1 mps 653 mmHg 82%

    22 June, Friday

    Time Temperature Precipitation Wind Pressure Humidity
    00:00 +15°C° 0 mm 1 mps 652 mmHg 80%
    01:00 +14°C° 0 mm 1 mps 652 mmHg 79%
    02:00 +14°C° 0 mm 1 mps 651 mmHg 77%
    03:00 +14°C° 0 mm 1 mps 651 mmHg 76%
    04:00 +14°C° 0 mm 1 mps 651 mmHg 75%
    05:00 +14°C° 0 mm 1 mps 650 mmHg 73%
    06:00 +14°C° 0 mm 1 mps 651 mmHg 71%
    07:00 +15°C° 0 mm 1 mps 651 mmHg 69%
    08:00 +16°C° 0 mm 1 mps 651 mmHg 66%
    09:00 +19°C° 0 mm 1 mps 651 mmHg 61%
    10:00 +20°C° 0 mm 2 mps 652 mmHg 55%
    11:00 +23°C° 0 mm 2 mps 652 mmHg 50%
    12:00 +23°C° 0 mm 2 mps 651 mmHg 49%
    13:00 +24°C° 0 mm 2 mps 650 mmHg 48%
    14:00 +25°C° 0 mm 2 mps 650 mmHg 47%
    15:00 +24°C° 0 mm 2 mps 649 mmHg 52%
    16:00 +23°C° 0 mm 2 mps 649 mmHg 56%
    17:00 +21°C° 0 mm 2 mps 649 mmHg 61%
    18:00 +21°C° 0 mm 1 mps 649 mmHg 67%
    19:00 +19°C° 0 mm 1 mps 649 mmHg 73%
    20:00 +18°C° 0 mm 1 mps 649 mmHg 79%
    21:00 +16°C° 0 mm 1 mps 649 mmHg 78%
    22:00 +16°C° 0 mm 1 mps 649 mmHg 77%
    23:00 +16°C° 0 mm 1 mps 649 mmHg 76%

    23 June, Saturday

    Time Temperature Precipitation Wind Pressure Humidity
    00:00 +16°C° 0 mm 1 mps 649 mmHg 73%
    01:00 +16°C° 0 mm 1 mps 648 mmHg 71%
    02:00 +16°C° 0 mm 1 mps 648 mmHg 69%
    03:00 +16°C° 0 mm 1 mps 648 mmHg 68%
    04:00 +16°C° 0 mm 2 mps 648 mmHg 66%
    05:00 +16°C° 0 mm 2 mps 648 mmHg 65%
    06:00 +16°C° 0 mm 2 mps 649 mmHg 64%
    07:00 +16°C° 0 mm 2 mps 649 mmHg 63%
    08:00 +16°C° 0 mm 2 mps 650 mmHg 62%
    09:00 +18°C° 0 mm 2 mps 650 mmHg 58%
    10:00 +20°C° 0 mm 2 mps 651 mmHg 54%
    11:00 +23°C° 0 mm 2 mps 651 mmHg 49%
    12:00 +23°C° 0 mm 2 mps 651 mmHg 47%
    13:00 +24°C° 0 mm 2 mps 650 mmHg 45%
    14:00 +25°C° 0 mm 2 mps 650 mmHg 44%
    15:00 +24°C° 0 mm 2 mps 650 mmHg 49%
    16:00 +23°C° 0 mm 2 mps 650 mmHg 54%
    17:00 +21°C° 0 mm 2 mps 650 mmHg 59%
    18:00 +19°C° 0 mm 2 mps 650 mmHg 67%
    19:00 +18°C° 0 mm 2 mps 650 mmHg 75%
    20:00 +16°C° 0 mm 1 mps 651 mmHg 83%
    21:00 +16°C° 0 mm 1 mps 651 mmHg 83%
    22:00 +15°C° 0 mm 2 mps 652 mmHg 83%
    23:00 +15°C° 0 mm 2 mps 652 mmHg 84%

    24 June, Sunday

    Time Temperature Precipitation Wind Pressure Humidity
    00:00 +14°C° 0 mm 2 mps 652 mmHg 84%
    01:00 +14°C° 0 mm 2 mps 652 mmHg 84%
    02:00 +13°C° 0 mm 2 mps 652 mmHg 85%
    03:00 +13°C° 0 mm 2 mps 652 mmHg 84%
    04:00 +13°C° 0 mm 2 mps 652 mmHg 84%
    05:00 +12°C° 0 mm 2 mps 652 mmHg 83%
    06:00 +12°C° 0 mm 2 mps 653 mmHg 82%
    07:00 +12°C° 0 mm 2 mps 653 mmHg 80%
    08:00 +12°C° 0 mm 2 mps 654 mmHg 79%
    09:00 +13°C° 0 mm 2 mps 654 mmHg 73%
    10:00 +13°C° 0 mm 3 mps 653 mmHg 66%
    11:00 +14°C° 0 mm 3 mps 653 mmHg 59%
    12:00 +14°C° 0 mm 3 mps 652 mmHg 57%
    13:00 +16°C° 0 mm 3 mps 651 mmHg 54%
    14:00 +16°C° 0 mm 3 mps 650 mmHg 51%
    15:00 +16°C° 0 mm 3 mps 650 mmHg 52%
    16:00 +14°C° 0 mm 3 mps 649 mmHg 54%
    17:00 +14°C° 0 mm 2 mps 649 mmHg 55%
    18:00 +13°C° 0 mm 2 mps 649 mmHg 58%
    19:00 +12°C° 0 mm 1 mps 649 mmHg 62%
    20:00 +10°C° 0 mm 1 mps 649 mmHg 65%
    21:00 +10°C° 0 mm 1 mps 649 mmHg 64%
    22:00 +10°C° 0 mm 1 mps 649 mmHg 63%
    23:00 +10°C° 0 mm 1 mps 649 mmHg 62%
    Show more